Location: Usti nad Labem
(50.6670°N, 14.0330°E)
Time: 04:33:41
(UTC+01:00)

ISS - Pass Details

Date: 30 November 2023
Orbit: 414 x 422 km, 51.6° (Epoch: 29 February)

Event Time Altitude Azimuth Distance (km) Brightness Sun altitude
Rises 17:29:44 0° 283° (WNW) 2,406 1.2 -13.1°
Reaches altitude 10° 17:31:50 10° 283° (WNW) 1,542 0.1 -13.5°
Maximum altitude 17:35:19 82° 195° (SSW) 447 -3.7 -14.0°
Enters shadow 17:37:27 22° 110° (ESE) 1,013 -2.3 -14.3°
